| time (UTC) | temp F | wind direction | speed MPH | gust MPH | rain 1hr in | rain 24hr in | rain mn in | humidity % | barometer mb |
| 20260831060826 | 78 | 29 | 0.0 | 0.0 | 0.00 | 0.09 | 0.00 | 93 | 1016.4 |
| 20260831060323 | 78 | 29 | 0.0 | 0.0 | 0.00 | 0.09 | 0.00 | 93 | 1016.5 |
| 20260831060002 | 77 | 29 | 0.0 | 0.0 | 0.00 | 0.09 | 0.00 | 93 | 1016.5 |
| 20260831055840 | 78 | 29 | 0.0 | 0.0 | 0.00 | 0.09 | 0.00 | 93 | 1016.6 |
| 20260831055316 | 78 | 29 | 0.0 | 0.0 | 0.00 | 0.09 | 0.00 | 93 | 1016.7 |
| 20260831054832 | 78 | 29 | 0.0 | 0.0 | 0.00 | 0.09 | 0.00 | 93 | 1016.8 |
| 20260831054525 | 77 | 29 | 0.0 | 0.0 | 0.00 | 0.09 | 0.00 | 93 | 1016.8 |
| 20260831054329 | 78 | 29 | 0.0 | 0.0 | 0.00 | 0.09 | 0.00 | 93 | 1017.0 |
| 20260831053826 | 78 | 29 | 0.0 | 0.0 | 0.00 | 0.09 | 0.00 | 93 | 1016.9 |
| 20260831053324 | 78 | 29 | 0.0 | 0.0 | 0.00 | 0.09 | 0.00 | 93 | 1017.0 |
| 20260831053011 | 78 | 29 | 0.0 | 0.0 | 0.00 | 0.09 | 0.00 | 93 | 1017.0 |
| 20260831052821 | 78 | 29 | 0.0 | 0.0 | 0.00 | 0.09 | 0.00 | 93 | 1017.1 |
| 20260831052319 | 78 | 29 | 0.0 | 0.0 | 0.00 | 0.09 | 0.00 | 93 | 1017.2 |
| 20260831051816 | 78 | 29 | 0.0 | 0.0 | 0.00 | 0.09 | 0.00 | 93 | 1017.2 |
| 20260831051608 | 77 | 29 | 0.0 | 0.0 | 0.00 | 0.09 | 0.00 | 93 | 1017.3 |
| 20260831051332 | 78 | 29 | 0.0 | 0.0 | 0.00 | 0.09 | 0.00 | 93 | 1017.2 |
| 20260831050829 | 78 | 29 | 0.0 | 0.0 | 0.00 | 0.09 | 0.00 | 93 | 1017.3 |
| 20260831050326 | 78 | 29 | 0.0 | 0.0 | 0.00 | 0.09 | 0.00 | 93 | 1017.3 |
| 20260831050042 | 78 | 29 | 0.0 | 0.0 | 0.00 | 0.09 | 0.00 | 93 | 1017.2 |
| 20260831045823 | 78 | 29 | 0.0 | 0.0 | 0.00 | 0.09 | 0.00 | 93 | 1017.3 |
| 20260831045337 | 78 | 29 | 0.0 | 0.0 | 0.00 | 0.09 | 0.00 | 93 | 1017.3 |
| 20260831044832 | 78 | 29 | 0.0 | 0.0 | 0.00 | 0.09 | 0.00 | 93 | 1017.5 |
| 20260831044559 | 77 | 29 | 0.0 | 0.0 | 0.00 | 0.09 | 0.00 | 93 | 1017.4 |
| 20260831044500 | 77 | 29 | 0.0 | 0.0 | 0.00 | 0.09 | 0.00 | 93 | 1017.4 |
| 20260831044329 | 78 | 29 | 0.0 | 0.0 | 0.00 | 0.09 | 0.00 | 93 | 1017.5 |
| 20260831043848 | 78 | 29 | 0.0 | 0.0 | 0.00 | 0.09 | 0.00 | 93 | 1017.6 |
| 20260831043324 | 78 | 29 | 0.0 | 0.0 | 0.00 | 0.09 | 0.00 | 93 | 1017.6 |
| 20260831043021 | 77 | 29 | 0.0 | 0.0 | 0.00 | 0.09 | 0.00 | 93 | 1017.6 |
| 20260831042819 | 78 | 29 | 0.0 | 0.0 | 0.00 | 0.09 | 0.00 | 93 | 1017.6 |
| 20260831042337 | 78 | 29 | 0.0 | 0.0 | 0.00 | 0.09 | 0.00 | 93 | 1017.6 |
| 20260831041854 | 78 | 29 | 0.0 | 0.0 | 0.00 | 0.09 | 0.00 | 93 | 1017.6 |
| 20260831041540 | 77 | 29 | 0.0 | 0.0 | 0.00 | 0.09 | 0.00 | 93 | 1017.6 |
| 20260831041351 | 78 | 29 | 0.0 | 0.0 | 0.00 | 0.09 | 0.00 | 93 | 1017.6 |
| 20260831040848 | 78 | 29 | 0.0 | 0.0 | 0.00 | 0.09 | 0.00 | 93 | 1017.6 |
| 20260831040344 | 78 | 29 | 0.0 | 0.0 | 0.00 | 0.09 | 0.00 | 93 | 1017.6 |
| 20260831040028 | 77 | 29 | 0.0 | 0.0 | 0.00 | 0.09 | 0.00 | 93 | 1017.6 |
| 20260831035840 | 78 | 29 | 0.0 | 0.0 | 0.00 | 0.09 | 0.09 | 93 | 1017.7 |
| 20260831035355 | 78 | 29 | 0.0 | 0.0 | 0.00 | 0.09 | 0.09 | 93 | 1017.7 |
| 20260831034830 | 78 | 34 | 0.0 | 0.0 | 0.00 | 0.09 | 0.09 | 93 | 1017.8 |
| 20260831034546 | 77 | 49 | 0.0 | 0.0 | 0.00 | 0.09 | 0.09 | 93 | 1017.7 |
| 20260831034327 | 78 | 49 | 0.0 | 0.0 | 0.00 | 0.09 | 0.09 | 93 | 1017.8 |
| 20260831033822 | 78 | 50 | 0.0 | 0.0 | 0.00 | 0.09 | 0.09 | 93 | 1017.9 |
| 20260831033319 | 78 | 50 | 0.0 | 0.0 | 0.00 | 0.09 | 0.09 | 93 | 1017.9 |
| 20260831033033 | 77 | 50 | 0.0 | 0.0 | 0.00 | 0.09 | 0.09 | 93 | 1017.7 |
| 20260831032836 | 78 | 50 | 0.0 | 0.0 | 0.00 | 0.09 | 0.09 | 93 | 1017.8 |
| 20260831032353 | 78 | 50 | 0.0 | 0.0 | 0.00 | 0.09 | 0.09 | 93 | 1017.8 |
| 20260831031830 | 78 | 50 | 0.0 | 0.0 | 0.00 | 0.09 | 0.09 | 93 | 1017.8 |
| 20260831031553 | 77 | 50 | 0.0 | 0.0 | 0.00 | 0.09 | 0.09 | 93 | 1017.7 |
| 20260831031328 | 78 | 50 | 0.0 | 0.0 | 0.00 | 0.09 | 0.09 | 93 | 1017.8 |
| 20260831030824 | 78 | 50 | 0.0 | 0.0 | 0.00 | 0.09 | 0.09 | 93 | 1017.8 |
| 20260831030320 | 78 | 351 | 0.0 | 0.0 | 0.00 | 0.09 | 0.09 | 93 | 1017.8 |
| 20260831030035 | 77 | 350 | 0.0 | 0.0 | 0.00 | 0.09 | 0.09 | 93 | 1017.7 |
| 20260831025837 | 78 | 351 | 0.0 | 0.0 | 0.00 | 0.09 | 0.09 | 93 | 1017.9 |
| 20260831025329 | 78 | 350 | 0.0 | 0.0 | 0.00 | 0.09 | 0.09 | 93 | 1018.0 |
| 20260831024846 | 78 | 2 | 0.0 | 0.0 | 0.00 | 0.09 | 0.09 | 93 | 1017.8 |
| 20260831024600 | 77 | 2 | 0.0 | 0.0 | 0.00 | 0.09 | 0.09 | 93 | 1017.7 |
| 20260831024322 | 78 | 2 | 0.0 | 0.0 | 0.00 | 0.09 | 0.09 | 93 | 1017.8 |
| 20260831023839 | 78 | 2 | 0.0 | 0.0 | 0.00 | 0.09 | 0.09 | 93 | 1017.7 |
| 20260831023356 | 78 | 2 | 0.0 | 0.0 | 0.00 | 0.09 | 0.09 | 93 | 1017.6 |
| 20260831023053 | 77 | 2 | 0.0 | 0.0 | 0.00 | 0.09 | 0.09 | 93 | 1017.5 |
| 20260831022831 | 78 | 2 | 0.0 | 0.0 | 0.00 | 0.09 | 0.09 | 93 | 1017.7 |
| 20260831022326 | 78 | 2 | 0.0 | 0.0 | 0.00 | 0.09 | 0.09 | 93 | 1017.5 |
| 20260831021845 | 78 | 2 | 0.0 | 0.0 | 0.00 | 0.09 | 0.09 | 93 | 1017.5 |
| 20260831021545 | 77 | 2 | 0.0 | 0.0 | 0.00 | 0.09 | 0.09 | 93 | 1017.4 |
| 20260831021341 | 78 | 2 | 0.0 | 0.0 | 0.00 | 0.09 | 0.09 | 93 | 1017.6 |
| 20260831020817 | 77 | 2 | 0.0 | 0.0 | 0.00 | 0.09 | 0.09 | 92 | 1017.6 |
| 20260831020334 | 77 | 2 | 0.0 | 0.0 | 0.00 | 0.09 | 0.09 | 92 | 1017.7 |
| 20260831020009 | 77 | 2 | 0.0 | 1.0 | 0.00 | 0.09 | 0.09 | 92 | 1017.6 |
| 20260831015851 | 77 | 2 | 0.0 | 1.0 | 0.00 | 0.09 | 0.09 | 92 | 1017.7 |
| 20260831015328 | 77 | 41 | 0.0 | 0.0 | 0.00 | 0.09 | 0.09 | 92 | 1017.8 |
| 20260831014822 | 77 | 41 | 0.0 | 0.0 | 0.00 | 0.09 | 0.09 | 92 | 1017.8 |
| 20260831014518 | 77 | 41 | 0.0 | 0.0 | 0.00 | 0.09 | 0.09 | 92 | 1017.8 |
| 20260831014339 | 77 | 41 | 0.0 | 0.0 | 0.00 | 0.09 | 0.09 | 92 | 1017.9 |
| 20260831013855 | 77 | 41 | 0.0 | 0.0 | 0.00 | 0.09 | 0.09 | 92 | 1017.9 |
| 20260831013351 | 77 | 41 | 0.0 | 0.0 | 0.00 | 0.09 | 0.09 | 92 | 1017.9 |
| 20260831013007 | 77 | 41 | 0.0 | 0.0 | 0.00 | 0.09 | 0.09 | 92 | 1017.7 |
| 20260831012827 | 77 | 41 | 0.0 | 0.0 | 0.00 | 0.09 | 0.09 | 92 | 1017.8 |
| 20260831012324 | 77 | 41 | 0.0 | 1.0 | 0.01 | 0.09 | 0.09 | 92 | 1017.7 |
| 20260831011838 | 77 | 41 | 0.0 | 1.0 | 0.01 | 0.09 | 0.09 | 92 | 1017.8 |
| 20260831011530 | 77 | 41 | 0.0 | 1.0 | 0.02 | 0.09 | 0.09 | 92 | 1017.7 |
| 20260831011332 | 77 | 46 | 0.0 | 0.0 | 0.02 | 0.09 | 0.09 | 92 | 1017.7 |
| 20260831010830 | 77 | 57 | 0.0 | 0.0 | 0.02 | 0.09 | 0.09 | 92 | 1017.7 |
| 20260831010327 | 77 | 57 | 0.0 | 0.0 | 0.03 | 0.09 | 0.09 | 91 | 1017.8 |
| 20260831010020 | 77 | 56 | 0.0 | 1.0 | 0.03 | 0.09 | 0.09 | 91 | 1017.6 |
| 20260831005823 | 77 | 56 | 0.0 | 1.0 | 0.04 | 0.09 | 0.09 | 91 | 1017.7 |
| 20260831005318 | 77 | 56 | 0.0 | 1.0 | 0.05 | 0.09 | 0.09 | 91 | 1017.6 |
| 20260831004836 | 77 | 57 | 0.0 | 0.0 | 0.05 | 0.09 | 0.09 | 91 | 1017.6 |
| 20260831004559 | 76 | 57 | 0.0 | 0.0 | 0.05 | 0.09 | 0.09 | 91 | 1017.5 |
| 20260831004505 | 76 | 57 | 0.0 | 0.0 | 0.05 | 0.09 | 0.09 | 91 | 1017.5 |
| 20260831004353 | 77 | 57 | 0.0 | 0.0 | 0.05 | 0.09 | 0.09 | 91 | 1017.6 |
| 20260831003829 | 77 | 56 | 0.0 | 3.0 | 0.06 | 0.09 | 0.09 | 91 | 1017.6 |
| 20260831003327 | 77 | 111 | 0.0 | 3.0 | 0.07 | 0.09 | 0.09 | 91 | 1017.6 |
| 20260831003024 | 77 | 136 | 0.0 | 3.0 | 0.07 | 0.09 | 0.09 | 91 | 1017.6 |
| 20260831002824 | 77 | 152 | 0.0 | 3.0 | 0.08 | 0.09 | 0.09 | 91 | 1017.7 |
| 20260831002321 | 77 | 56 | 0.0 | 3.0 | 0.07 | 0.08 | 0.08 | 91 | 1017.7 |
| 20260831001838 | 77 | 68 | 1.0 | 5.0 | 0.07 | 0.08 | 0.08 | 91 | 1017.7 |
| 20260831001544 | 77 | 136 | 2.0 | 5.0 | 0.06 | 0.07 | 0.07 | 91 | 1017.6 |
| 20260831001315 | 78 | 58 | 1.0 | 3.0 | 0.06 | 0.07 | 0.07 | 91 | 1017.6 |
| 20260831000832 | 78 | 143 | 0.0 | 3.0 | 0.06 | 0.07 | 0.07 | 91 | 1017.6 |
| 20260831000332 | 78 | 135 | 1.0 | 5.0 | 0.05 | 0.06 | 0.06 | 91 | 1017.4 |
| 20260831000027 | 77 | 79 | 1.0 | 5.0 | 0.05 | 0.06 | 0.06 | 91 | 1017.2 |
| 20260830235826 | 77 | 53 | 1.0 | 5.0 | 0.04 | 0.05 | 0.05 | 91 | 1017.3 |
| 20260830235323 | 77 | 57 | 2.0 | 7.0 | 0.03 | 0.04 | 0.04 | 91 | 1017.3 |
| 20260830234820 | 78 | 117 | 3.0 | 9.0 | 0.03 | 0.04 | 0.04 | 91 | 1017.3 |
| 20260830234514 | 78 | 134 | 1.0 | 9.0 | 0.03 | 0.04 | 0.04 | 91 | 1017.1 |
| 20260830234318 | 78 | 43 | 2.0 | 9.0 | 0.03 | 0.04 | 0.04 | 91 | 1017.2 |
| 20260830233816 | 78 | 49 | 2.0 | 7.0 | 0.02 | 0.03 | 0.03 | 90 | 1017.2 |
| 20260830233333 | 78 | 65 | 2.0 | 7.0 | 0.01 | 0.02 | 0.02 | 90 | 1017.3 |
| 20260830233057 | 78 | 126 | 3.0 | 7.0 | 0.01 | 0.02 | 0.02 | 90 | 1017.4 |
| 20260830232832 | 79 | 102 | 2.0 | 7.0 | 0.00 | 0.01 | 0.01 | 90 | 1017.5 |
| 20260830232329 | 79 | 53 | 2.0 | 3.0 | 0.00 | 0.01 | 0.01 | 90 | 1017.4 |
| 20260830231828 | 79 | 129 | 0.0 | 5.0 | 0.00 | 0.01 | 0.01 | 89 | 1017.3 |
| 20260830231547 | 78 | 143 | 1.0 | 7.0 | 0.00 | 0.01 | 0.01 | 88 | 1017.1 |
| 20260830230827 | 79 | 117 | 4.0 | 6.0 | 0.00 | 0.01 | 0.01 | 87 | 1017.5 |
| 20260830230324 | 80 | 155 | 3.0 | 6.0 | 0.00 | 0.01 | 0.01 | 86 | 1017.5 |
| 20260830230036 | 80 | 147 | 1.0 | 8.0 | 0.00 | 0.01 | 0.01 | 86 | 1017.3 |
| 20260830225823 | 81 | 168 | 2.0 | 8.0 | 0.00 | 0.01 | 0.01 | 86 | 1017.3 |
| 20260830225322 | 82 | 152 | 3.0 | 8.0 | 0.00 | 0.01 | 0.01 | 86 | 1017.4 |
| 20260830224820 | 81 | 356 | 0.0 | 0.0 | 0.00 | 0.01 | 0.01 | 85 | 1017.1 |
| 20260830224518 | 81 | 356 | 0.0 | 0.0 | 0.00 | 0.01 | 0.01 | 85 | 1017.0 |
| 20260830224318 | 81 | 356 | 0.0 | 0.0 | 0.00 | 0.01 | 0.01 | 85 | 1017.1 |
| 20260830223836 | 81 | 45 | 0.0 | 0.0 | 0.00 | 0.01 | 0.01 | 85 | 1017.3 |
| 20260830223333 | 82 | 45 | 0.0 | 0.0 | 0.00 | 0.01 | 0.01 | 85 | 1017.4 |
| 20260830223047 | 81 | 45 | 0.0 | 1.0 | 0.00 | 0.01 | 0.01 | 85 | 1017.3 |
| 20260830222829 | 82 | 45 | 0.0 | 2.0 | 0.00 | 0.01 | 0.01 | 85 | 1017.2 |
| 20260830222328 | 82 | 285 | 0.0 | 4.0 | 0.00 | 0.01 | 0.01 | 84 | 1017.0 |
| 20260830221826 | 82 | 37 | 1.0 | 4.0 | 0.00 | 0.01 | 0.01 | 84 | 1017.2 |
| 20260830221545 | 82 | 30 | 0.0 | 0.0 | 0.00 | 0.01 | 0.01 | 84 | 1017.0 |
| 20260830221324 | 82 | 329 | 0.0 | 0.0 | 0.00 | 0.01 | 0.01 | 84 | 1017.0 |
| 20260830220821 | 82 | 31 | 0.0 | 1.0 | 0.00 | 0.01 | 0.01 | 84 | 1016.8 |
| 20260830220340 | 82 | 31 | 0.0 | 1.0 | 0.00 | 0.01 | 0.01 | 84 | 1016.8 |
| 20260830220004 | 81 | 31 | 0.0 | 3.0 | 0.00 | 0.01 | 0.01 | 84 | 1016.8 |
| 20260830215815 | 82 | 314 | 0.0 | 3.0 | 0.00 | 0.01 | 0.01 | 84 | 1016.9 |
| 20260830215332 | 82 | 44 | 1.0 | 3.0 | 0.00 | 0.01 | 0.01 | 84 | 1017.0 |
| 20260830214829 | 82 | 263 | 0.0 | 2.0 | 0.00 | 0.01 | 0.01 | 84 | 1017.0 |
| 20260830214550 | 81 | 262 | 0.0 | 3.0 | 0.00 | 0.01 | 0.01 | 84 | 1016.9 |
| 20260830214327 | 82 | 288 | 0.0 | 3.0 | 0.00 | 0.01 | 0.01 | 84 | 1017.1 |
| 20260830213845 | 82 | 23 | 0.0 | 6.0 | 0.00 | 0.01 | 0.01 | 83 | 1017.0 |
| 20260830213320 | 82 | 286 | 0.0 | 6.0 | 0.00 | 0.01 | 0.01 | 83 | 1017.0 |
| 20260830213017 | 82 | 335 | 1.0 | 4.0 | 0.00 | 0.01 | 0.01 | 83 | 1016.9 |
| 20260830212817 | 83 | 318 | 0.0 | 5.0 | 0.00 | 0.01 | 0.01 | 83 | 1017.1 |
| 20260830212334 | 83 | 316 | 0.0 | 5.0 | 0.00 | 0.01 | 0.01 | 82 | 1017.1 |
| 20260830211832 | 84 | 82 | 1.0 | 3.0 | 0.00 | 0.01 | 0.01 | 82 | 1017.1 |
| 20260830211558 | 84 | 144 | 0.0 | 4.0 | 0.00 | 0.01 | 0.01 | 82 | 1017.1 |
| 20260830211328 | 85 | 295 | 0.0 | 4.0 | 0.00 | 0.01 | 0.01 | 81 | 1017.1 |
| 20260830210825 | 86 | 345 | 0.0 | 4.0 | 0.00 | 0.01 | 0.01 | 81 | 1017.0 |
| 20260830210322 | 87 | 139 | 1.0 | 5.0 | 0.00 | 0.01 | 0.01 | 81 | 1016.7 |
| 20260830210043 | 86 | 38 | 0.0 | 6.0 | 0.00 | 0.01 | 0.01 | 80 | 1016.6 |
| 20260830205837 | 87 | 135 | 2.0 | 6.0 | 0.00 | 0.01 | 0.01 | 81 | 1016.7 |
| 20260830205353 | 87 | 113 | 3.0 | 6.0 | 0.00 | 0.01 | 0.01 | 80 | 1016.7 |
| 20260830204830 | 87 | 63 | 2.0 | 6.0 | 0.00 | 0.01 | 0.01 | 80 | 1016.8 |
| 20260830204509 | 87 | 149 | 1.0 | 8.0 | 0.00 | 0.01 | 0.01 | 79 | 1016.6 |
| 20260830204328 | 87 | 134 | 1.0 | 10.0 | 0.00 | 0.01 | 0.01 | 79 | 1016.6 |
| 20260830203823 | 88 | 134 | 4.0 | 10.0 | 0.00 | 0.01 | 0.01 | 78 | 1016.6 |
| 20260830203320 | 88 | 124 | 5.0 | 9.0 | 0.00 | 0.01 | 0.01 | 78 | 1016.5 |
| 20260830203116 | 87 | 134 | 4.0 | 7.0 | 0.00 | 0.01 | 0.01 | 78 | 1016.5 |
| 20260830202819 | 88 | 107 | 3.0 | 6.0 | 0.00 | 0.01 | 0.01 | 78 | 1016.6 |
| 20260830202316 | 88 | 147 | 3.0 | 6.0 | 0.00 | 0.01 | 0.01 | 78 | 1016.6 |
| 20260830201834 | 88 | 130 | 3.0 | 8.0 | 0.00 | 0.01 | 0.01 | 78 | 1016.4 |
| 20260830201546 | 88 | 143 | 3.0 | 11.0 | 0.00 | 0.01 | 0.01 | 77 | 1016.2 |
| 20260830201331 | 89 | 120 | 5.0 | 11.0 | 0.00 | 0.01 | 0.01 | 77 | 1016.3 |
| 20260830200828 | 89 | 121 | 6.0 | 10.0 | 0.00 | 0.01 | 0.01 | 77 | 1016.2 |
| 20260830200325 | 89 | 111 | 4.0 | 8.0 | 0.00 | 0.01 | 0.01 | 78 | 1016.4 |
| 20260830200026 | 89 | 139 | 3.0 | 8.0 | 0.00 | 0.03 | 0.01 | 78 | 1016.4 |
| 20260830195822 | 89 | 97 | 4.0 | 8.0 | 0.00 | 0.03 | 0.01 | 79 | 1016.5 |
| 20260830195319 | 89 | 268 | 4.0 | 8.0 | 0.00 | 0.03 | 0.01 | 79 | 1016.7 |
| 20260830194814 | 89 | 139 | 5.0 | 8.0 | 0.00 | 0.03 | 0.01 | 79 | 1016.7 |
| 20260830194508 | 89 | 105 | 3.0 | 7.0 | 0.00 | 0.03 | 0.01 | 79 | 1016.7 |
| 20260830194332 | 89 | 131 | 3.0 | 7.0 | 0.00 | 0.03 | 0.01 | 79 | 1016.8 |
| 20260830193829 | 89 | 78 | 2.0 | 6.0 | 0.00 | 0.03 | 0.01 | 80 | 1016.7 |
| 20260830193345 | 89 | 123 | 3.0 | 7.0 | 0.00 | 0.03 | 0.01 | 79 | 1016.6 |
| 20260830193029 | 89 | 121 | 3.0 | 8.0 | 0.00 | 0.03 | 0.01 | 78 | 1016.6 |
| 20260830192820 | 90 | 104 | 2.0 | 8.0 | 0.00 | 0.03 | 0.01 | 78 | 1016.8 |
| 20260830192334 | 90 | 136 | 2.0 | 8.0 | 0.00 | 0.03 | 0.01 | 79 | 1016.8 |
| 20260830191830 | 89 | 137 | 3.0 | 7.0 | 0.00 | 0.03 | 0.01 | 78 | 1016.8 |
| 20260830191525 | 89 | 108 | 4.0 | 9.0 | 0.00 | 0.03 | 0.01 | 79 | 1016.7 |
| 20260830191350 | 89 | 105 | 3.0 | 9.0 | 0.00 | 0.03 | 0.01 | 79 | 1016.9 |
| 20260830190826 | 90 | 123 | 4.0 | 8.0 | 0.00 | 0.03 | 0.01 | 79 | 1017.0 |
| 20260830190341 | 90 | 53 | 4.0 | 8.0 | 0.00 | 0.03 | 0.01 | 80 | 1017.1 |
| 20260830190031 | 89 | 48 | 4.0 | 8.0 | 0.00 | 0.09 | 0.01 | 79 | 1017.1 |
| 20260830185816 | 90 | 158 | 3.0 | 8.0 | 0.00 | 0.09 | 0.01 | 80 | 1017.1 |
| 20260830185332 | 89 | 122 | 2.0 | 8.0 | 0.00 | 0.09 | 0.01 | 80 | 1017.3 |
| 20260830184830 | 88 | 136 | 3.0 | 10.0 | 0.00 | 0.09 | 0.01 | 81 | 1017.4 |
| 20260830184543 | 87 | 77 | 4.0 | 11.0 | 0.00 | 0.09 | 0.01 | 80 | 1017.3 |
| 20260830184326 | 88 | 70 | 0.0 | 11.0 | 0.00 | 0.09 | 0.01 | 81 | 1017.4 |
| 20260830183823 | 88 | 36 | 2.0 | 7.0 | 0.00 | 0.09 | 0.01 | 80 | 1017.3 |
| 20260830183318 | 88 | 130 | 3.0 | 7.0 | 0.00 | 0.09 | 0.01 | 79 | 1017.4 |
| 20260830183006 | 88 | 72 | 2.0 | 7.0 | 0.00 | 0.09 | 0.01 | 80 | 1017.3 |
| 20260830182815 | 89 | 117 | 3.0 | 7.0 | 0.00 | 0.09 | 0.01 | 80 | 1017.4 |
| 20260830182332 | 88 | 38 | 3.0 | 7.0 | 0.00 | 0.09 | 0.01 | 80 | 1017.4 |
| 20260830181828 | 88 | 238 | 3.0 | 7.0 | 0.00 | 0.09 | 0.01 | 80 | 1017.6 |
| 20260830181557 | 88 | 37 | 3.0 | 7.0 | 0.00 | 0.09 | 0.01 | 80 | 1017.4 |
| 20260830181324 | 88 | 135 | 4.0 | 7.0 | 0.00 | 0.09 | 0.01 | 80 | 1017.5 |
| 20260830180330 | 88 | 50 | 4.0 | 9.0 | 0.00 | 0.09 | 0.01 | 80 | 1017.6 |
| 20260830180044 | 87 | 60 | 2.0 | 7.0 | 0.00 | 0.12 | 0.01 | 80 | 1017.6 |
| 20260830175848 | 88 | 132 | 3.0 | 8.0 | 0.00 | 0.12 | 0.01 | 80 | 1017.7 |
| 20260830175323 | 88 | 153 | 4.0 | 8.0 | 0.00 | 0.12 | 0.01 | 80 | 1017.8 |
| 20260830174841 | 88 | 60 | 3.0 | 7.0 | 0.00 | 0.12 | 0.01 | 80 | 1017.7 |
| 20260830174551 | 88 | 67 | 2.0 | 6.0 | 0.00 | 0.12 | 0.01 | 81 | 1017.5 |
| 20260830174316 | 89 | 137 | 1.0 | 6.0 | 0.00 | 0.12 | 0.01 | 81 | 1017.7 |
| 20260830173833 | 88 | 166 | 3.0 | 8.0 | 0.00 | 0.12 | 0.01 | 81 | 1017.7 |
| 20260830173328 | 88 | 162 | 4.0 | 8.0 | 0.00 | 0.12 | 0.01 | 82 | 1017.7 |
| 20260830173036 | 87 | 129 | 2.0 | 8.0 | 0.00 | 0.12 | 0.01 | 81 | 1017.6 |
| 20260830172845 | 88 | 143 | 1.0 | 5.0 | 0.00 | 0.12 | 0.01 | 82 | 1017.8 |
| 20260830172341 | 87 | 49 | 1.0 | 6.0 | 0.00 | 0.12 | 0.01 | 82 | 1017.9 |
| 20260830171818 | 87 | 34 | 2.0 | 9.0 | 0.00 | 0.12 | 0.01 | 82 | 1018.0 |
| 20260830171541 | 86 | 136 | 1.0 | 9.0 | 0.00 | 0.12 | 0.01 | 82 | 1017.9 |
| 20260830171316 | 86 | 159 | 4.0 | 9.0 | 0.00 | 0.12 | 0.01 | 82 | 1018.1 |
| 20260830170832 | 86 | 46 | 4.0 | 8.0 | 0.00 | 0.12 | 0.01 | 82 | 1018.3 |
| 20260830170330 | 86 | 125 | 4.0 | 8.0 | 0.00 | 0.12 | 0.01 | 82 | 1018.3 |
| 20260830170022 | 86 | 117 | 3.0 | 7.0 | 0.00 | 0.12 | 0.01 | 82 | 1018.2 |
| 20260830165828 | 86 | 148 | 3.0 | 7.0 | 0.00 | 0.12 | 0.01 | 82 | 1018.4 |
| 20260830165324 | 85 | 161 | 3.0 | 8.0 | 0.00 | 0.12 | 0.01 | 83 | 1018.3 |
| 20260830164842 | 85 | 138 | 2.0 | 7.0 | 0.00 | 0.12 | 0.01 | 83 | 1018.3 |
| 20260830164605 | 84 | 116 | 0.0 | 3.0 | 0.00 | 0.12 | 0.01 | 84 | 1018.2 |
| 20260830164318 | 83 | 51 | 2.0 | 5.0 | 0.00 | 0.12 | 0.01 | 84 | 1018.3 |
| 20260830163816 | 83 | 103 | 1.0 | 5.0 | 0.00 | 0.12 | 0.01 | 84 | 1018.4 |
| 20260830163334 | 83 | 14 | 0.0 | 0.0 | 0.00 | 0.12 | 0.01 | 84 | 1018.4 |
| 20260830163028 | 82 | 34 | 0.0 | 0.0 | 0.00 | 0.12 | 0.01 | 85 | 1018.3 |
| 20260830162851 | 82 | 30 | 0.0 | 0.0 | 0.00 | 0.12 | 0.01 | 85 | 1018.5 |
| 20260830162326 | 81 | 41 | 0.0 | 0.0 | 0.00 | 0.12 | 0.01 | 85 | 1018.6 |
| 20260830161821 | 80 | 41 | 0.0 | 0.0 | 0.01 | 0.12 | 0.01 | 86 | 1018.7 |
| 20260830161543 | 79 | 43 | 0.0 | 0.0 | 0.01 | 0.12 | 0.01 | 86 | 1018.7 |
| 20260830161338 | 79 | 97 | 0.0 | 0.0 | 0.01 | 0.12 | 0.01 | 87 | 1018.8 |
| 20260830160815 | 79 | 129 | 0.0 | 0.0 | 0.01 | 0.12 | 0.01 | 87 | 1019.0 |
| 20260830160331 | 79 | 134 | 0.0 | 3.0 | 0.01 | 0.12 | 0.01 | 87 | 1019.0 |
| 20260830160014 | 78 | 63 | 0.0 | 3.0 | 0.01 | 0.15 | 0.01 | 87 | 1018.9 |
| 20260830155826 | 79 | 108 | 0.0 | 3.0 | 0.01 | 0.15 | 0.01 | 87 | 1019.0 |
| 20260830155322 | 78 | 144 | 1.0 | 3.0 | 0.01 | 0.15 | 0.01 | 87 | 1019.2 |
| 20260830154820 | 78 | 108 | 1.0 | 3.0 | 0.01 | 0.15 | 0.01 | 87 | 1019.4 |
| 20260830154555 | 78 | 70 | 0.0 | 0.0 | 0.01 | 0.15 | 0.01 | 87 | 1019.4 |
| 20260830154317 | 78 | 125 | 0.0 | 0.0 | 0.01 | 0.15 | 0.01 | 86 | 1019.4 |
| 20260830153815 | 78 | 63 | 0.0 | 0.0 | 0.01 | 0.15 | 0.01 | 86 | 1019.6 |
| 20260830153328 | 78 | 122 | 0.0 | 3.0 | 0.01 | 0.15 | 0.01 | 86 | 1019.9 |
| 20260830153037 | 78 | 127 | 0.0 | 3.0 | 0.01 | 0.15 | 0.01 | 86 | 1019.9 |
| 20260830152846 | 78 | 96 | 1.0 | 4.0 | 0.01 | 0.15 | 0.01 | 86 | 1020.2 |
| 20260830152320 | 78 | 105 | 2.0 | 4.0 | 0.01 | 0.15 | 0.01 | 85 | 1020.3 |
| 20260830151815 | 79 | 48 | 0.0 | 4.0 | 0.00 | 0.14 | 0.00 | 85 | 1020.2 |
| 20260830151504 | 78 | 39 | 2.0 | 4.0 | 0.00 | 0.14 | 0.00 | 85 | 1020.0 |
| 20260830151333 | 79 | 47 | 3.0 | 4.0 | 0.00 | 0.14 | 0.00 | 85 | 1020.0 |
| 20260830150830 | 79 | 30 | 0.0 | 1.0 | 0.00 | 0.14 | 0.00 | 85 | 1019.8 |
| 20260830150326 | 79 | 32 | 0.0 | 0.0 | 0.00 | 0.14 | 0.00 | 85 | 1019.8 |
| 20260830150048 | 79 | 44 | 0.0 | 1.0 | 0.00 | 0.14 | 0.00 | 84 | 1019.7 |
| 20260830145823 | 79 | 44 | 0.0 | 3.0 | 0.00 | 0.14 | 0.00 | 83 | 1019.6 |
| 20260830145319 | 79 | 46 | 0.0 | 5.0 | 0.00 | 0.14 | 0.00 | 82 | 1019.8 |
| 20260830144556 | 79 | 127 | 1.0 | 5.0 | 0.00 | 0.14 | 0.00 | 82 | 1020.1 |
| 20260830144329 | 80 | 129 | 1.0 | 5.0 | 0.00 | 0.14 | 0.00 | 82 | 1020.3 |
| 20260830143825 | 81 | 43 | 2.0 | 6.0 | 0.00 | 0.14 | 0.00 | 82 | 1019.8 |
| 20260830143321 | 81 | 41 | 2.0 | 7.0 | 0.00 | 0.14 | 0.00 | 82 | 1019.4 |
| 20260830143036 | 80 | 44 | 0.0 | 9.0 | 0.00 | 0.14 | 0.00 | 82 | 1019.1 |
| 20260830142818 | 81 | 53 | 2.0 | 9.0 | 0.00 | 0.14 | 0.00 | 82 | 1019.3 |
| 20260830142316 | 81 | 142 | 4.0 | 10.0 | 0.00 | 0.14 | 0.00 | 82 | 1019.5 |
| 20260830141832 | 82 | 95 | 4.0 | 11.0 | 0.00 | 0.14 | 0.00 | 82 | 1019.5 |
| 20260830141515 | 83 | 57 | 5.0 | 11.0 | 0.00 | 0.14 | 0.00 | 82 | 1019.4 |
| 20260830141330 | 84 | 148 | 6.0 | 11.0 | 0.00 | 0.14 | 0.00 | 83 | 1019.3 |
| 20260830140825 | 85 | 154 | 2.0 | 6.0 | 0.00 | 0.14 | 0.00 | 85 | 1018.8 |
| 20260830140321 | 85 | 105 | 1.0 | 4.0 | 0.00 | 0.14 | 0.00 | 85 | 1018.6 |
| 20260830140002 | 84 | 134 | 2.0 | 4.0 | 0.00 | 0.14 | 0.00 | 85 | 1018.6 |
| 20260830135817 | 85 | 124 | 3.0 | 4.0 | 0.00 | 0.14 | 0.00 | 84 | 1018.7 |
| 20260830135333 | 85 | 125 | 0.0 | 0.0 | 0.00 | 0.14 | 0.00 | 84 | 1018.6 |
| 20260830134831 | 85 | 116 | 0.0 | 3.0 | 0.00 | 0.14 | 0.00 | 84 | 1018.8 |
| 20260830134548 | 84 | 121 | 0.0 | 4.0 | 0.00 | 0.14 | 0.00 | 84 | 1018.6 |
| 20260830134328 | 85 | 119 | 2.0 | 4.0 | 0.00 | 0.14 | 0.00 | 84 | 1018.5 |
| 20260830133844 | 85 | 128 | 2.0 | 5.0 | 0.00 | 0.14 | 0.00 | 83 | 1018.2 |
| 20260830133319 | 85 | 122 | 1.0 | 6.0 | 0.00 | 0.14 | 0.00 | 84 | 1018.2 |
| 20260830133131 | 85 | 153 | 3.0 | 6.0 | 0.00 | 0.14 | 0.00 | 84 | 1018.1 |
| 20260830132816 | 85 | 104 | 2.0 | 6.0 | 0.00 | 0.14 | 0.00 | 84 | 1018.2 |
| 20260830132334 | 86 | 116 | 2.0 | 6.0 | 0.00 | 0.14 | 0.00 | 83 | 1018.2 |
| 20260830131830 | 86 | 131 | 3.0 | 6.0 | 0.00 | 0.14 | 0.00 | 83 | 1018.2 |
| 20260830131532 | 85 | 104 | 2.0 | 7.0 | 0.00 | 0.14 | 0.00 | 83 | 1018.0 |
| 20260830131327 | 86 | 162 | 3.0 | 7.0 | 0.00 | 0.14 | 0.00 | 83 | 1018.0 |
| 20260830130845 | 86 | 123 | 3.0 | 7.0 | 0.00 | 0.14 | 0.00 | 83 | 1018.3 |
| 20260830130323 | 86 | 108 | 1.0 | 5.0 | 0.00 | 0.14 | 0.00 | 82 | 1018.3 |
| 20260830130056 | 86 | 135 | 2.0 | 5.0 | 0.00 | 0.14 | 0.00 | 82 | 1018.1 |
| 20260830125820 | 87 | 122 | 2.0 | 5.0 | 0.00 | 0.14 | 0.00 | 82 | 1018.2 |
| 20260830125318 | 87 | 113 | 2.0 | 4.0 | 0.00 | 0.14 | 0.00 | 82 | 1018.4 |
| 20260830124816 | 88 | 123 | 1.0 | 2.0 | 0.00 | 0.14 | 0.00 | 82 | 1018.3 |
| 20260830124549 | 87 | 134 | 0.0 | 2.0 | 0.00 | 0.14 | 0.00 | 82 | 1018.2 |
| 20260830124334 | 88 | 134 | 1.0 | 2.0 | 0.00 | 0.14 | 0.00 | 82 | 1018.3 |
| 20260830123832 | 88 | 117 | 0.0 | 2.0 | 0.00 | 0.14 | 0.00 | 82 | 1018.4 |
| 20260830123329 | 87 | 122 | 0.0 | 0.0 | 0.00 | 0.14 | 0.00 | 83 | 1018.3 |
| 20260830123022 | 87 | 122 | 0.0 | 0.0 | 0.00 | 0.14 | 0.00 | 84 | 1018.1 |
| 20260830122827 | 87 | 123 | 0.0 | 0.0 | 0.00 | 0.14 | 0.00 | 85 | 1018.2 |
| 20260830122324 | 85 | 122 | 0.0 | 0.0 | 0.00 | 0.14 | 0.00 | 87 | 1018.1 |
| 20260830121822 | 84 | 123 | 0.0 | 0.0 | 0.00 | 0.14 | 0.00 | 87 | 1018.1 |
| 20260830121508 | 83 | 122 | 0.0 | 0.0 | 0.00 | 0.14 | 0.00 | 87 | 1018.0 |
| 20260830121319 | 84 | 122 | 0.0 | 0.0 | 0.00 | 0.14 | 0.00 | 88 | 1018.1 |
| 20260830120815 | 83 | 123 | 0.0 | 0.0 | 0.00 | 0.14 | 0.00 | 88 | 1018.1 |
| 20260830120329 | 83 | 122 | 0.0 | 0.0 | 0.00 | 0.14 | 0.00 | 89 | 1018.1 |
| 20260830120054 | 82 | 122 | 0.0 | 0.0 | 0.00 | 0.14 | 0.00 | 89 | 1018.0 |
| 20260830115825 | 83 | 123 | 0.0 | 0.0 | 0.00 | 0.14 | 0.00 | 89 | 1018.0 |
| 20260830115321 | 82 | 122 | 0.0 | 1.0 | 0.00 | 0.14 | 0.00 | 90 | 1018.0 |
| 20260830114838 | 82 | 122 | 0.0 | 1.0 | 0.00 | 0.14 | 0.00 | 90 | 1017.9 |
| 20260830114519 | 81 | 122 | 0.0 | 0.0 | 0.00 | 0.14 | 0.00 | 91 | 1017.7 |
| 20260830114314 | 81 | 122 | 0.0 | 0.0 | 0.00 | 0.14 | 0.00 | 91 | 1017.8 |
| 20260830113833 | 80 | 122 | 0.0 | 0.0 | 0.00 | 0.14 | 0.00 | 91 | 1017.7 |
| 20260830113330 | 80 | 122 | 0.0 | 0.0 | 0.00 | 0.14 | 0.00 | 91 | 1017.6 |
| 20260830113007 | 79 | 123 | 0.0 | 0.0 | 0.00 | 0.14 | 0.00 | 91 | 1017.5 |
| 20260830112826 | 80 | 122 | 0.0 | 0.0 | 0.00 | 0.14 | 0.00 | 91 | 1017.5 |
| 20260830112325 | 80 | 122 | 0.0 | 0.0 | 0.00 | 0.14 | 0.00 | 91 | 1017.4 |
| 20260830111822 | 80 | 122 | 0.0 | 0.0 | 0.00 | 0.14 | 0.00 | 91 | 1017.4 |
| 20260830111547 | 79 | 122 | 0.0 | 0.0 | 0.00 | 0.14 | 0.00 | 91 | 1017.2 |
| 20260830111319 | 80 | 122 | 0.0 | 0.0 | 0.00 | 0.14 | 0.00 | 90 | 1017.1 |
| 20260830110816 | 80 | 122 | 0.0 | 0.0 | 0.00 | 0.14 | 0.00 | 90 | 1017.1 |
| 20260830110336 | 80 | 123 | 0.0 | 0.0 | 0.00 | 0.14 | 0.00 | 90 | 1017.0 |
| 20260830110033 | 79 | 122 | 0.0 | 0.0 | 0.00 | 0.14 | 0.00 | 90 | 1016.8 |
| 20260830105854 | 80 | 122 | 0.0 | 0.0 | 0.00 | 0.14 | 0.00 | 90 | 1016.8 |
| 20260830105329 | 80 | 123 | 0.0 | 0.0 | 0.00 | 0.14 | 0.00 | 90 | 1016.7 |
| 20260830104828 | 80 | 122 | 0.0 | 0.0 | 0.00 | 0.14 | 0.00 | 90 | 1016.7 |
| 20260830104503 | 80 | 122 | 0.0 | 0.0 | 0.00 | 0.14 | 0.00 | 90 | 1016.6 |
| 20260830104324 | 80 | 122 | 0.0 | 0.0 | 0.00 | 0.14 | 0.00 | 90 | 1016.6 |
| 20260830103823 | 80 | 123 | 0.0 | 0.0 | 0.00 | 0.14 | 0.00 | 89 | 1016.5 |
| 20260830103319 | 80 | 123 | 0.0 | 0.0 | 0.00 | 0.14 | 0.00 | 89 | 1016.4 |
| 20260830103049 | 80 | 122 | 0.0 | 0.0 | 0.00 | 0.14 | 0.00 | 89 | 1016.2 |
| 20260830102817 | 81 | 122 | 0.0 | 0.0 | 0.00 | 0.14 | 0.00 | 89 | 1016.4 |
| 20260830102315 | 81 | 122 | 0.0 | 0.0 | 0.00 | 0.14 | 0.00 | 89 | 1016.4 |
| 20260830101833 | 81 | 122 | 0.0 | 0.0 | 0.00 | 0.14 | 0.00 | 88 | 1016.3 |
| 20260830101537 | 80 | 123 | 0.0 | 0.0 | 0.00 | 0.14 | 0.00 | 88 | 1016.2 |
| 20260830101331 | 81 | 123 | 0.0 | 0.0 | 0.00 | 0.14 | 0.00 | 88 | 1016.3 |
| 20260830100827 | 81 | 122 | 0.0 | 1.0 | 0.00 | 0.14 | 0.00 | 88 | 1016.2 |
| 20260830100323 | 82 | 122 | 0.0 | 1.0 | 0.00 | 0.14 | 0.00 | 88 | 1016.1 |
| 20260830100020 | 81 | 122 | 0.0 | 1.0 | 0.00 | 0.14 | 0.00 | 88 | 1016.0 |
| 20260830095841 | 82 | 122 | 0.0 | 1.0 | 0.00 | 0.14 | 0.00 | 88 | 1016.1 |
| 20260830095338 | 82 | 123 | 0.0 | 2.0 | 0.00 | 0.14 | 0.00 | 88 | 1016.1 |
| 20260830094854 | 82 | 118 | 1.0 | 3.0 | 0.00 | 0.14 | 0.00 | 87 | 1016.1 |
| 20260830094517 | 81 | 140 | 0.0 | 3.0 | 0.00 | 0.14 | 0.00 | 87 | 1016.0 |
| 20260830094331 | 82 | 122 | 1.0 | 3.0 | 0.00 | 0.14 | 0.00 | 87 | 1016.1 |
| 20260830093827 | 82 | 129 | 1.0 | 4.0 | 0.00 | 0.14 | 0.00 | 87 | 1015.9 |
| 20260830093324 | 82 | 139 | 2.0 | 4.0 | 0.00 | 0.14 | 0.00 | 87 | 1016.0 |
| 20260830093059 | 81 | 106 | 1.0 | 3.0 | 0.00 | 0.14 | 0.00 | 87 | 1015.9 |
| 20260830093001 | 81 | 131 | 1.0 | 3.0 | 0.00 | 0.14 | 0.00 | 87 | 1015.9 |
| 20260830092821 | 82 | 127 | 1.0 | 3.0 | 0.00 | 0.14 | 0.00 | 87 | 1015.9 |
| 20260830092317 | 82 | 111 | 1.0 | 3.0 | 0.00 | 0.14 | 0.00 | 87 | 1016.0 |
| 20260830091815 | 82 | 89 | 1.0 | 3.0 | 0.00 | 0.14 | 0.00 | 87 | 1015.9 |
| 20260830091547 | 81 | 133 | 1.0 | 4.0 | 0.00 | 0.14 | 0.00 | 87 | 1015.8 |
| 20260830091331 | 82 | 120 | 2.0 | 4.0 | 0.00 | 0.14 | 0.00 | 87 | 1016.0 |
| 20260830090827 | 82 | 146 | 2.0 | 4.0 | 0.00 | 0.14 | 0.00 | 87 | 1016.0 |
| 20260830090325 | 82 | 120 | 1.0 | 3.0 | 0.00 | 0.14 | 0.00 | 87 | 1016.0 |
| 20260830090045 | 81 | 110 | 1.0 | 3.0 | 0.00 | 0.14 | 0.00 | 87 | 1016.0 |
| 20260830085822 | 82 | 136 | 1.0 | 3.0 | 0.00 | 0.14 | 0.00 | 87 | 1016.1 |
| 20260830085338 | 82 | 127 | 0.0 | 3.0 | 0.00 | 0.14 | 0.00 | 87 | 1016.1 |
| 20260830084833 | 82 | 117 | 0.0 | 4.0 | 0.00 | 0.14 | 0.00 | 87 | 1016.2 |
| 20260830084505 | 81 | 149 | 1.0 | 4.0 | 0.00 | 0.14 | 0.00 | 87 | 1016.1 |
| 20260830084330 | 82 | 125 | 2.0 | 4.0 | 0.00 | 0.14 | 0.00 | 87 | 1016.2 |
| 20260830083847 | 82 | 127 | 0.0 | 2.0 | 0.00 | 0.14 | 0.00 | 87 | 1016.1 |
| 20260830083339 | 82 | 124 | 0.0 | 4.0 | 0.00 | 0.14 | 0.00 | 87 | 1016.2 |
| 20260830083110 | 81 | 108 | 0.0 | 4.0 | 0.00 | 0.14 | 0.00 | 87 | 1016.1 |
| 20260830083001 | 81 | 128 | 0.0 | 4.0 | 0.00 | 0.14 | 0.00 | 87 | 1016.1 |
| 20260830082814 | 82 | 121 | 1.0 | 4.0 | 0.00 | 0.14 | 0.00 | 87 | 1016.2 |
| 20260830082331 | 82 | 139 | 0.0 | 4.0 | 0.00 | 0.14 | 0.00 | 87 | 1016.1 |
| 20260830081827 | 82 | 117 | 2.0 | 4.0 | 0.00 | 0.14 | 0.00 | 88 | 1016.2 |
| 20260830081545 | 81 | 118 | 2.0 | 5.0 | 0.00 | 0.14 | 0.00 | 88 | 1016.1 |
| 20260830081346 | 82 | 84 | 1.0 | 5.0 | 0.00 | 0.14 | 0.00 | 88 | 1016.3 |
| 20260830080823 | 82 | 138 | 2.0 | 5.0 | 0.00 | 0.14 | 0.00 | 88 | 1016.4 |
| 20260830080320 | 82 | 133 | 2.0 | 4.0 | 0.00 | 0.14 | 0.00 | 88 | 1016.4 |
| 20260830080007 | 81 | 136 | 1.0 | 4.0 | 0.00 | 0.14 | 0.00 | 88 | 1016.4 |
| 20260830075818 | 82 | 139 | 2.0 | 4.0 | 0.00 | 0.14 | 0.00 | 88 | 1016.5 |
| 20260830075332 | 82 | 117 | 2.0 | 4.0 | 0.00 | 0.14 | 0.00 | 88 | 1016.6 |
| 20260830074829 | 82 | 131 | 1.0 | 3.0 | 0.00 | 0.14 | 0.00 | 87 | 1016.7 |
| 20260830074551 | 81 | 97 | 1.0 | 3.0 | 0.00 | 0.14 | 0.00 | 87 | 1016.6 |
| 20260830074326 | 82 | 139 | 1.0 | 4.0 | 0.00 | 0.14 | 0.00 | 87 | 1016.7 |
| 20260830073823 | 82 | 134 | 2.0 | 4.0 | 0.00 | 0.14 | 0.00 | 87 | 1016.8 |
| 20260830073321 | 82 | 129 | 1.0 | 3.0 | 0.00 | 0.14 | 0.00 | 87 | 1016.8 |
| 20260830073036 | 81 | 131 | 1.0 | 4.0 | 0.00 | 0.14 | 0.00 | 87 | 1016.7 |
| 20260830072816 | 82 | 136 | 1.0 | 4.0 | 0.00 | 0.14 | 0.00 | 87 | 1016.8 |
| 20260830072332 | 82 | 134 | 2.0 | 6.0 | 0.00 | 0.14 | 0.00 | 87 | 1016.8 |
| 20260830071829 | 82 | 115 | 2.0 | 6.0 | 0.00 | 0.14 | 0.00 | 87 | 1016.7 |
| 20260830071519 | 81 | 148 | 0.0 | 6.0 | 0.00 | 0.14 | 0.00 | 87 | 1016.8 |
| 20260830071322 | 82 | 134 | 1.0 | 6.0 | 0.00 | 0.14 | 0.00 | 87 | 1016.9 |
| 20260830070818 | 82 | 131 | 1.0 | 6.0 | 0.00 | 0.14 | 0.00 | 87 | 1016.8 |
| 20260830070317 | 82 | 148 | 3.0 | 5.0 | 0.00 | 0.14 | 0.00 | 87 | 1016.9 |
| 20260830070109 | 82 | 117 | 1.0 | 5.0 | 0.00 | 0.14 | 0.00 | 87 | 1016.8 |
| 20260830070003 | 82 | 69 | 1.0 | 6.0 | 0.00 | 0.14 | 0.00 | 87 | 1016.8 |
| 20260830065835 | 82 | 61 | 2.0 | 6.0 | 0.00 | 0.14 | 0.00 | 87 | 1016.9 |
| 20260830065331 | 82 | 147 | 2.0 | 6.0 | 0.00 | 0.14 | 0.00 | 87 | 1017.0 |
| 20260830064828 | 82 | 65 | 2.0 | 6.0 | 0.00 | 0.14 | 0.00 | 87 | 1017.0 |
| 20260830064526 | 82 | 141 | 2.0 | 6.0 | 0.00 | 0.14 | 0.00 | 87 | 1016.8 |
| 20260830064326 | 82 | 143 | 3.0 | 6.0 | 0.00 | 0.14 | 0.00 | 87 | 1016.9 |
| 20260830063842 | 82 | 123 | 2.0 | 6.0 | 0.00 | 0.14 | 0.00 | 87 | 1017.0 |
| 20260830063339 | 82 | 140 | 2.0 | 6.0 | 0.00 | 0.14 | 0.00 | 88 | 1017.1 |
| 20260830063021 | 81 | 92 | 1.0 | 4.0 | 0.00 | 0.14 | 0.00 | 88 | 1016.9 |
| 20260830062816 | 82 | 146 | 2.0 | 4.0 | 0.00 | 0.14 | 0.00 | 88 | 1017.0 |
| 20260830062333 | 82 | 113 | 1.0 | 6.0 | 0.00 | 0.14 | 0.00 | 88 | 1017.2 |
| 20260830061850 | 82 | 113 | 3.0 | 6.0 | 0.00 | 0.14 | 0.00 | 88 | 1017.3 |
| 20260830061559 | 81 | 166 | 1.0 | 6.0 | 0.00 | 0.14 | 0.00 | 88 | 1017.2 |
| 20260830061325 | 82 | 140 | 2.0 | 6.0 | 0.00 | 0.14 | 0.00 | 88 | 1017.2 |